Regional Weather Roundup
Issued by NWS State College, PA

Home | Current Version | Previous Version | Graphics & Text | Print | Product List | Glossary Off
Versions: 1 2 3 4 5 6 7 8 9 10 11 12 13 14 15 16 17 18 19 20 21 22 23 24 25 26 27 28 29 30 31 32 33 34 35 36 37 38 39 40 41 42 43 44 45 46 47 48 49 50

000
ASUS41 KCTP 010603
RWRCTP

REGIONAL WEATHER ROUNDUP
NATIONAL WEATHER SERVICE STATE COLLEGE PA
100 AM EST SUN FEB 01 2015

Note: "fair" indicates few or no clouds below 12,000 feet with no
significant weather and/or obstructions to visibility.

* = STATION THAT DOES NOT REPORT PRECIPITATION /E.G. RAIN...SNOW...ETC/
    THUNDER OR FOG.

PAZ002>004-007>009-013>016-020>023-029>032-010700-
WESTERN PENNSYLVANIA

CITY           SKY/WX    TMP DP  RH WIND       PRES   REMARKS
ERIE           CLOUDY    29  18  63 SW8       30.17F
MEADVILLE      CLOUDY    25  17  72 S6        30.14F
FRANKLIN*      CLOUDY    23  14  68 SW6       30.16F
NEW CASTLE     CLOUDY    27  18  69 CALM      30.19F
BEAVER COUNTY  NOT AVBL
BUTLER*        CLOUDY    27  18  69 SW5       30.19F
PITTSBURGH INT CLOUDY    28  17  63 SW5       30.18F
PITTSBURGH     CLOUDY    26  14  60 S7        30.18F
INDIANA*       CLOUDY    19  16  86 CALM      30.21F
LATROBE        CLOUDY    27  18  69 S12       30.21F
WASHINGTON CO* CLOUDY    27  16  63 SW5       30.21F
$$

PAZ004>006-010>012-017>019-024>028-033>037-041-042-045-046-049>053-010700-
CENTRAL PENNSYLVANIA

CITY           SKY/WX    TMP DP  RH WIND       PRES   REMARKS
BRADFORD       CLOUDY    20  13  74 W6        30.09S WCI  12
DUBOIS         CLOUDY    19  13  77 W7        30.12F WCI  10
CLEARFIELD     CLOUDY    14  10  84 S6        30.15F WCI   5
JOHNSTOWN      CLOUDY    24  13  62 W15       30.11S WCI  11
ALTOONA        CLOUDY    23  12  62 S8        30.17S WCI  14
STATE COLLEGE  CLOUDY    19  12  73 SW3       30.18S
WILLIAMSPORT   CLOUDY    20  10  65 NW6       30.20F WCI  12
SELINSGROVE    CLOUDY     9   5  84 CALM      30.23S
FT INDIANTOWN  PTCLDY    20   8  61 W6        30.22F WCI  12
CAPITAL CITY   PTCLDY    15   8  73 CALM      30.24F
HARRISBURG     PTCLDY    10   5  80 CALM      30.24F
YORK           PTCLDY     7   3  84 CALM      30.23F
$$

PAZ038>040-043-044-047-048-054-055-060>062-067>071-010700-
EASTERN PENNSYLVANIA

CITY           SKY/WX    TMP DP  RH WIND       PRES   REMARKS
SCRANTON       CLOUDY    11   3  70 CALM      30.15S
MOUNT POCONO   CLOUDY    12   3  67 NW9       30.06R WCI   0
ALLENTOWN      PTCLDY    10   3  73 CALM      30.21S
QUAKERTOWN*    PTCLDY    16   7  67 CALM      30.21S
READING        CLEAR     20   7  57 W3        30.22F
LANCASTER      PTCLDY    16   5  62 CALM      30.23F
COATESVILLE    CLEAR     18  10  73 W5        30.22F WCI  11
POTTSTOWN      CLEAR     16   6  65 CALM      30.24S
BLUE BELL      CLEAR     25  10  54 CALM      30.23S
DOYLESTOWN     CLEAR     16   7  67 SW5       30.21S WCI   9
WILLOW GROVE   NOT AVBL
NORTH PHILA    CLEAR     23   8  52 W6        30.26S
PHILADELPHIA   PTCLDY    22  11  62 W6        30.27S WCI  14
$$


USA.gov is the U.S. government's official web portal to all federal, state and local government web resources and services.